Location: Easthampton
(42.2676°N, 72.6690°W)
Time: 06:37:01
(UTC+00:00)

N. Korean satellite - Pass Details

Date: 05 December 2022
Orbit: 407 x 444 km, 97.3° (Epoch: 28 January)

Event Time Altitude Azimuth Distance (km) Brightness Sun altitude
Rises 09:06:36 0° 34° (NNE) 2,502 10.6 -32.1°
Reaches altitude 10° 09:09:43 10° 65° (ENE) 1,609 9.9 -31.5°
Maximum altitude 09:11:15 12° 91° (E) 1,455 9.8 -31.2°
Drops below altitude 10° 09:12:46 10° 118° (ESE) 1,591 9.9 -30.9°
Sets 09:15:47 0° 149° (SSE) 2,441 10.6 -30.4°
